User: anonymous   Login
Location: Wildcat Hills Observatory
(41.6350°N, 103.6812°W)
Time: 18:10:56
(UTC-07:00)
Language:

Cosmos 1634 Rocket - Orbit

View from above orbital plane
View from above orbital plane
View from above satellite
View from above satellite

Ground track
Ground track

The orbit data is extracted from the following two-line orbital elements,

1 15598U 85022B   17320.61238804 -.00000015 +00000-0 -30665-4 0  9992
2 15598 082.9369 353.8099 0023024 045.7539 064.7275 13.76558932641199
Epoch (UTC): 16 November 2017 14:41:50
Eccentricity: 0.0023024
inclination: 82.9369°
perigee height: 959 km
apogee height: 993 km
right ascension of ascending node: 353.8099°
argument of perigee: 45.7539°
revolutions per day: 13.76558932
mean anomaly at epoch: 64.7275°
orbit number at epoch: 64119

The dashed part of the orbit path shows where the satellite is in the earth's shadow,  

DLR